• En España
  • Lista de países
  • Para 7 días
  • Temperatura del agua
  • Mapa Satelital
  • El tiempo en el mapa
  • Informadores
  • user-avatar
    Iniciar sesión

    Tiempo cada hora Santa Fe

    Hoy, 19 Octubre, Viernes

    Tiempo Temperatura Precipitaciones Viento Presión Humedad
    00:00 +20°C° 0 mm 5 mps 762 mmHg 80%
    01:00 +19°C° 0 mm 5 mps 762 mmHg 83%
    02:00 +18°C° 0 mm 4 mps 762 mmHg 87%
    03:00 +17°C° 0 mm 5 mps 762 mmHg 87%
    04:00 +17°C° 0 mm 5 mps 762 mmHg 88%
    05:00 +17°C° 0 mm 5 mps 762 mmHg 88%
    06:00 +17°C° 0 mm 6 mps 763 mmHg 86%
    07:00 +17°C° 0 mm 6 mps 763 mmHg 85%
    08:00 +17°C° 0 mm 6 mps 764 mmHg 83%
    09:00 +20°C° 0 mm 6 mps 764 mmHg 76%
    10:00 +22°C° 0 mm 5 mps 764 mmHg 68%
    11:00 +25°C° 0 mm 5 mps 764 mmHg 61%
    12:00 +26°C° 0 mm 5 mps 763 mmHg 56%
    13:00 +27°C° 0 mm 5 mps 763 mmHg 51%
    14:00 +29°C° 0 mm 6 mps 762 mmHg 46%
    15:00 +28°C° 0 mm 5 mps 762 mmHg 48%
    16:00 +28°C° 0 mm 5 mps 762 mmHg 51%
    17:00 +27°C° 0 mm 5 mps 761 mmHg 54%
    18:00 +26°C° 0 mm 5 mps 762 mmHg 59%
    19:00 +23°C° 0 mm 5 mps 762 mmHg 65%
    20:00 +21°C° 0 mm 4 mps 763 mmHg 71%
    21:00 +21°C° 0 mm 4 mps 763 mmHg 74%
    22:00 +20°C° 0 mm 4 mps 763 mmHg 76%
    23:00 +20°C° 0 mm 4 mps 763 mmHg 79%

    Mañana, 20 Octubre, Sábado

    Tiempo Temperatura Precipitaciones Viento Presión Humedad
    00:00 +19°C° 0 mm 4 mps 763 mmHg 81%
    01:00 +18°C° 0 mm 4 mps 763 mmHg 84%
    02:00 +18°C° 0 mm 4 mps 763 mmHg 86%
    03:00 +17°C° 0 mm 4 mps 763 mmHg 87%
    04:00 +17°C° 0 mm 4 mps 763 mmHg 88%
    05:00 +15°C° 0 mm 4 mps 763 mmHg 89%
    06:00 +16°C° 0 mm 5 mps 763 mmHg 84%
    07:00 +17°C° 0 mm 5 mps 763 mmHg 79%
    08:00 +19°C° 0 mm 5 mps 763 mmHg 74%
    09:00 +21°C° 0 mm 5 mps 763 mmHg 65%
    10:00 +22°C° 0 mm 6 mps 763 mmHg 57%
    11:00 +24°C° 0 mm 6 mps 763 mmHg 49%
    12:00 +26°C° 0 mm 6 mps 762 mmHg 46%
    13:00 +27°C° 0 mm 6 mps 761 mmHg 44%
    14:00 +27°C° 0 mm 6 mps 760 mmHg 41%
    15:00 +26°C° 0 mm 6 mps 760 mmHg 45%
    16:00 +24°C° 0 mm 6 mps 760 mmHg 48%
    17:00 +23°C° 0 mm 6 mps 759 mmHg 51%
    18:00 +22°C° 0 mm 6 mps 760 mmHg 54%
    19:00 +21°C° 0 mm 6 mps 760 mmHg 57%
    20:00 +20°C° 0 mm 6 mps 761 mmHg 60%
    21:00 +20°C° 0 mm 5 mps 761 mmHg 61%
    22:00 +20°C° 0 mm 5 mps 761 mmHg 62%
    23:00 +19°C° 0 mm 4 mps 761 mmHg 63%

    Pasado mañana, 21 Octubre, Domingo

    Tiempo Temperatura Precipitaciones Viento Presión Humedad
    00:00 +19°C° 0 mm 4 mps 761 mmHg 65%
    01:00 +19°C° 0 mm 4 mps 760 mmHg 66%
    02:00 +19°C° 0 mm 4 mps 760 mmHg 68%
    03:00 +18°C° 0 mm 4 mps 760 mmHg 71%
    04:00 +18°C° 0 mm 3 mps 760 mmHg 73%
    05:00 +17°C° 0 mm 3 mps 760 mmHg 76%
    06:00 +18°C° 0 mm 4 mps 760 mmHg 71%
    07:00 +19°C° 0 mm 4 mps 760 mmHg 67%
    08:00 +21°C° 0 mm 5 mps 760 mmHg 62%
    09:00 +23°C° 0 mm 4 mps 760 mmHg 56%
    10:00 +26°C° 0 mm 4 mps 760 mmHg 49%
    11:00 +28°C° 0 mm 4 mps 759 mmHg 43%
    12:00 +29°C° 0 mm 3 mps 759 mmHg 40%
    13:00 +30°C° 0 mm 3 mps 758 mmHg 38%
    14:00 +31°C° 0 mm 3 mps 757 mmHg 35%
    15:00 +31°C° 0 mm 3 mps 757 mmHg 37%
    16:00 +30°C° 0 mm 3 mps 756 mmHg 39%
    17:00 +30°C° 0 mm 3 mps 756 mmHg 41%
    18:00 +28°C° 0 mm 3 mps 756 mmHg 48%
    19:00 +26°C° 0 mm 3 mps 757 mmHg 54%
    20:00 +24°C° 0 mm 3 mps 757 mmHg 60%
    21:00 +22°C° 0 mm 3 mps 757 mmHg 62%
    22:00 +21°C° 0 mm 3 mps 757 mmHg 65%
    23:00 +21°C° 0 mm 3 mps 757 mmHg 68%

    22 Octubre, Lunes

    Tiempo Temperatura Precipitaciones Viento Presión Humedad
    00:00 +20°C° 0 mm 3 mps 757 mmHg 70%
    01:00 +20°C° 0 mm 3 mps 756 mmHg 72%
    02:00 +19°C° 0 mm 2 mps 756 mmHg 74%
    03:00 +19°C° 0.1 mm 2 mps 756 mmHg 77%
    04:00 +19°C° 0.1 mm 2 mps 756 mmHg 80%
    05:00 +18°C° 0.1 mm 2 mps 757 mmHg 83%
    06:00 +20°C° 0.6 mm 2 mps 757 mmHg 82%
    07:00 +21°C° 0.6 mm 2 mps 757 mmHg 82%
    08:00 +23°C° 0.6 mm 2 mps 758 mmHg 81%
    09:00 +23°C° 0.5 mm 2 mps 758 mmHg 80%
    10:00 +24°C° 0.5 mm 2 mps 758 mmHg 80%
    11:00 +25°C° 0.5 mm 2 mps 758 mmHg 79%
    12:00 +26°C° 0.6 mm 2 mps 757 mmHg 75%
    13:00 +27°C° 0.6 mm 3 mps 756 mmHg 72%
    14:00 +28°C° 0.6 mm 3 mps 756 mmHg 68%
    15:00 +27°C° 0.9 mm 3 mps 756 mmHg 70%
    16:00 +27°C° 0.9 mm 3 mps 756 mmHg 73%
    17:00 +26°C° 0.9 mm 3 mps 756 mmHg 75%
    18:00 +25°C° 0.5 mm 3 mps 756 mmHg 80%
    19:00 +24°C° 0.5 mm 3 mps 757 mmHg 85%
    20:00 +22°C° 0.5 mm 4 mps 758 mmHg 89%
    21:00 +21°C° 0.4 mm 4 mps 758 mmHg 90%
    22:00 +21°C° 0.4 mm 5 mps 759 mmHg 90%
    23:00 +20°C° 0.4 mm 6 mps 759 mmHg 91%

    23 Octubre, Martes

    Tiempo Temperatura Precipitaciones Viento Presión Humedad
    00:00 +20°C° 0.4 mm 6 mps 759 mmHg 91%
    01:00 +19°C° 0.4 mm 6 mps 759 mmHg 91%
    02:00 +19°C° 0.4 mm 6 mps 760 mmHg 92%
    03:00 +17°C° 0.2 mm 6 mps 760 mmHg 91%
    04:00 +16°C° 0.2 mm 6 mps 761 mmHg 90%
    05:00 +15°C° 0.2 mm 6 mps 761 mmHg 89%
    06:00 +15°C° 0.1 mm 6 mps 762 mmHg 84%
    07:00 +15°C° 0.1 mm 7 mps 762 mmHg 79%
    08:00 +15°C° 0.1 mm 7 mps 763 mmHg 73%
    09:00 +16°C° 0 mm 7 mps 763 mmHg 67%
    10:00 +19°C° 0 mm 6 mps 763 mmHg 61%
    11:00 +20°C° 0 mm 6 mps 763 mmHg 55%
    12:00 +21°C° 0 mm 6 mps 763 mmHg 53%
    13:00 +22°C° 0 mm 6 mps 763 mmHg 50%
    14:00 +23°C° 0 mm 6 mps 762 mmHg 48%
    15:00 +23°C° 0 mm 5 mps 762 mmHg 49%
    16:00 +23°C° 0 mm 5 mps 762 mmHg 51%
    17:00 +22°C° 0 mm 5 mps 761 mmHg 52%
    18:00 +21°C° 0 mm 5 mps 762 mmHg 58%
    19:00 +20°C° 0 mm 4 mps 762 mmHg 63%
    20:00 +18°C° 0 mm 4 mps 763 mmHg 68%
    21:00 +17°C° 0 mm 4 mps 763 mmHg 71%
    22:00 +17°C° 0 mm 4 mps 763 mmHg 74%
    23:00 +15°C° 0 mm 4 mps 763 mmHg 77%

    24 Octubre, Miércoles

    Tiempo Temperatura Precipitaciones Viento Presión Humedad
    00:00 +14°C° 0 mm 4 mps 763 mmHg 79%
    01:00 +14°C° 0 mm 4 mps 763 mmHg 81%
    02:00 +13°C° 0 mm 4 mps 762 mmHg 83%
    03:00 +13°C° 0 mm 4 mps 763 mmHg 84%
    04:00 +12°C° 0 mm 4 mps 763 mmHg 86%
    05:00 +12°C° 0 mm 4 mps 763 mmHg 87%
    06:00 +13°C° 0 mm 4 mps 763 mmHg 81%
    07:00 +15°C° 0 mm 4 mps 763 mmHg 75%
    08:00 +16°C° 0 mm 5 mps 763 mmHg 69%
    09:00 +20°C° 0 mm 5 mps 762 mmHg 62%
    10:00 +22°C° 0 mm 4 mps 762 mmHg 55%
    11:00 +25°C° 0 mm 4 mps 761 mmHg 48%
    12:00 +26°C° 0 mm 4 mps 760 mmHg 46%
    13:00 +27°C° 0 mm 5 mps 760 mmHg 44%
    14:00 +29°C° 0 mm 5 mps 759 mmHg 41%
    15:00 +28°C° 0 mm 5 mps 758 mmHg 44%
    16:00 +27°C° 0 mm 5 mps 758 mmHg 47%
    17:00 +27°C° 0 mm 5 mps 758 mmHg 51%
    18:00 +25°C° 0 mm 5 mps 758 mmHg 57%
    19:00 +22°C° 0 mm 4 mps 758 mmHg 64%
    20:00 +20°C° 0 mm 4 mps 758 mmHg 71%
    21:00 +20°C° 0 mm 4 mps 758 mmHg 74%
    22:00 +19°C° 0 mm 4 mps 758 mmHg 77%
    23:00 +19°C° 0 mm 4 mps 758 mmHg 80%
    Mostrar más